Weather Roundup
Issued by NWS

Home | Current Version | Previous Version | Text Only | Print | Product List | Glossary On
Versions: 1 2 3 4 5 6 7 8 9 10 11 12 13 14 15 16 17 18 19 20 21 22 23 24 25 26 27 28 29 30 31 32 33 34 35 36 37 38 39 40 41 42 43 44 45 46 47 48 49 50
000
NZUS99 KDVN 280110
HRRRRR
HOURLY WEATHER ROUNDUP
NATIONAL WEATHER SERVICE QUAD CITIES IA IL
700 PM CST SAT FEB 27 2021

Note: "Fair" indicates few or no clouds below 12,000 feet with
no significant weather and/or obstructions to visibility.
------------------------------------------------------------------

CITY           SKY/WX    TMP DP  RH WIND       PRES   REMARKS
BURLINGTON     CLEAR     47  37  68 E9        29.92F WCI  43
CEDAR RAPIDS   CLEAR     36  30  79 E17       29.89F WCI  26
DAVENPORT      PTCLDY    40  32  73 E9        29.98F WCI  34
DUBUQUE        CLEAR     36  29  75 SE7       29.97F WCI  30
IOWA CITY      PTCLDY    41  33  73 E12       29.92F WCI  34
MOLINE         PTCLDY    38  32  79 E6        29.96F WCI  33
------------------------------------------------------------------
The stations below are not NWS stations and are not subject to NWS
quality control.  Some stations do not report weather such as fog.
* - Stations that report TMP and DP in whole degrees Celsius, which
are then converted to Fahrenheit.
------------------------------------------------------------------

CITY           SKY/WX    TMP DP  RH WIND       PRES   REMARKS
CLINTON        PTCLDY    34  32  92 E13       29.99  WCI  25
FAIRFIELD *    CLEAR     43  37  81 E15       29.88F WCI  35
FORT MADISON * PTCLDY    46  37  71 SE10      29.93S WCI  41
FREEPORT       PTCLDY    32  30  94 CALM      30.03F
INDEPENDENCE   CLEAR     35  31  86 E14       29.91F WCI  25
KEOKUK *       PTCLDY    48  39  71 SE13      29.92R WCI  43
MACOMB         MOCLDY    45  39  79 SE9       29.97F WCI  40
MONTICELLO *   CLEAR     37  34  87 NE7       29.95F WCI  32
MT PLEASANT *  CLEAR     37  34  87 E8        29.91F WCI  31
MUSCATINE *    PTCLDY    43  37  81 E8        29.94F WCI  38
SAVANNA *      PTCLDY    36  32  87 E6        30.00F WCI  31
STERLING/R.F.  CLEAR     35  32  88 E7        30.01F WCI  29
VINTON         CLEAR     36  32  86 E10       29.91F WCI  28
WASHINGTON *   PTCLDY    37  37 100 E14       29.89F WCI  29
------------------------------------------------------------------




USA.gov is the U.S. government's official web portal to all federal, state and local government web resources and services.